Flag for Kazakhstan Weather past 2 weeks in Astana, Kazakhstan

Now
57 °F

Passing clouds.


Feels Like: 57 °F
Forecast: 35 / 67 °F
Wind: 3 mph from Northeast

Location: Astana

Current Time: Sep 3, 2014 at 10:43:56 AM

Latest Report: Sep 3, 2014 at 10:00 AM


Visibility: N/A

Pressure: 30.27 "Hg

Humidity: 33%

Dew point: 28 °F

Location of AstanaLocation

Historic Weather in Astana — Graph

°F

Astana temperature yesterday

Maximum temperature yesterday: 59 °F (at 2:30 PM)
Minimum temperature yesterday: 45 °F (at 6:00 AM)
Average temperature yesterday: 51 °F

Past Weeks' High & Low Weather Summary

 TemperatureHumidityPressure
High100 °F (Aug 24, 2:30 PM)94% (Aug 20, 7:00 AM)30.27 "Hg (Aug 20, 7:00 AM)
Low36 °F (Sep 3, 2:00 AM)10% (Aug 19, 2:30 PM)29.71 "Hg (Aug 24, 7:00 PM)
Average69 °F47%29.99 "Hg
* Reported Aug 19 9:30 AM — Sep 3 9:30 AM, Astana, Weather by CustomWeather, © 2014

Note: Actual official high and low records may vary slightly from our data, if they occured in-between our weather recording intervals... More about our weather records

Advertising

Astana weather history for previous 24 hours

 ConditionsComfort  
Time TempWeatherWind HumidityBarometerVisibility
9:30 AM
Sep 3
54 °FSunny.1 mph44%30.27 "Hg10 mi
9:00 AM50 °FSunny.1 mph50%30.27 "Hg10 mi
8:30 AM48 °FSunny.No wind58%30.27 "Hg10 mi
8:00 AM45 °FSunny.1 mph66%30.27 "Hg10 mi
7:30 AM41 °FSunny.1 mph70%30.24 "Hg10 mi
7:00 AM36 °FSunny.No wind87%30.24 "Hg10 mi
6:30 AM36 °FSunny.No wind87%30.24 "Hg10 mi
6:00 AM37 °FClear.No wind75%30.24 "Hg10 mi
5:30 AM39 °FClear.1 mph75%30.24 "Hg10 mi
5:00 AM36 °FClear.1 mph87%30.24 "Hg10 mi
4:30 AM36 °FClear.6 mph81%30.24 "Hg10 mi
4:00 AM37 °FClear.3 mph81%30.24 "Hg10 mi
3:30 AM37 °FClear.3 mph81%30.24 "Hg10 mi
3:00 AM37 °FClear.3 mph81%30.24 "Hg10 mi
2:30 AM37 °FClear.6 mph81%30.24 "Hg10 mi
2:00 AM36 °FClear.6 mph87%30.24 "Hg10 mi
1:30 AM37 °FClear.6 mph75%30.24 "Hg10 mi
1:00 AM43 °FClear.6 mph66%30.24 "Hg10 mi
12:30 AM45 °FClear.3 mph61%30.24 "Hg10 mi
12:00 AM45 °FClear.6 mph61%30.24 "Hg10 mi
11:30 PM
Sep 2
45 °FClear.3 mph61%30.24 "Hg10 mi
11:00 PM45 °FClear.3 mph61%30.24 "Hg10 mi
10:30 PM46 °FClear.6 mph57%30.24 "Hg10 mi
10:00 PM45 °FClear.8 mph66%30.24 "Hg10 mi
9:30 PM45 °FClear.8 mph66%30.24 "Hg10 mi
9:00 PM45 °FClear.8 mph66%30.24 "Hg10 mi
8:30 PM46 °FClear.8 mph57%30.24 "Hg10 mi
8:00 PM50 °FClear.10 mph50%30.21 "Hg10 mi
7:30 PM54 °FSunny.10 mph44%30.21 "Hg10 mi
7:00 PM55 °FSunny.13 mph41%30.21 "Hg10 mi
6:30 PM57 °FSunny.10 mph36%30.21 "Hg10 mi
6:00 PM55 °FPassing clouds.10 mph41%30.21 "HgN/A
5:30 PM57 °FPassing clouds.13 mph36%30.21 "HgN/A
5:00 PM59 °FPassing clouds.8 mph34%30.18 "HgN/A
4:30 PM59 °FSunny.13 mph34%30.18 "Hg10 mi
4:00 PM57 °FPassing clouds.13 mph36%30.21 "HgN/A
3:30 PM59 °FPassing clouds.10 mph34%30.18 "HgN/A
3:00 PM57 °FPassing clouds.10 mph36%30.18 "HgN/A
2:30 PM59 °FPassing clouds.10 mph34%30.18 "HgN/A
2:00 PM55 °FPassing clouds.13 mph38%30.18 "HgN/A
1:30 PM55 °FPassing clouds.10 mph38%30.18 "HgN/A
1:00 PM55 °FPassing clouds.15 mph38%30.18 "HgN/A
12:30 PM57 °FPassing clouds.13 mph36%30.18 "HgN/A
12:00 PM55 °FSunny.13 mph41%30.18 "Hg10 mi
11:30 AM55 °FSunny.13 mph38%30.18 "Hg10 mi
11:00 AM54 °FPartly sunny.13 mph44%30.18 "HgN/A
10:30 AM54 °FScattered clouds.13 mph47%30.15 "HgN/A
10:00 AM54 °FPassing clouds.10 mph54%30.15 "HgN/A
Weather by CustomWeather, © 2014

See weather overviewHow to use our weather pages